This demonstration page uses our WeatherBlox Daily Observations layout. Learn more.

Hourly Observations for July 23, 2017

Temp ( °F °C ) Dew Point ( °F °C ) Humidity (%) Winds ( mph kmh ) Pressure ( in mb ) Visibility ( mi km ) Precip ( " mm )
12:15 am 00:15 Cloudy with Rain 73 23 73 23 100 100 Calm 29.8 1009 4 6.437376 0.06 1.524
12:35 am 00:35 Cloudy with Light Rain 73 23 73 23 100 100 S 8 13 29.8 1009 10 16.09344 0.09 2.286
12:55 am 00:55 Cloudy 73 23 73 23 100 100 SSW 7 11 29.8 1009 10 16.09344 0.09 2.286
1:15 am 01:15 Cloudy 73 23 73 23 100 100 SSW 6 9 29.8 1009 10 16.09344 0 0
1:35 am 01:35 Cloudy 73 23 73 23 100 100 Calm 29.8 1009 10 16.09344 0 0
1:55 am 01:55 Partly Cloudy 73 23 73 23 100 100 Calm 29.8 1009 10 16.09344 0.01 0.254
2:15 am 02:15 Clear 73 23 73 23 100 100 Calm 29.8 1009 10 16.09344 0 0
2:35 am 02:35 Clear 73 23 73 23 100 100 Calm 29.8 1009 7 11.265408 0 0
2:55 am 02:55 Partly Cloudy 73 23 73 23 100 100 Calm 29.77 1008 7 11.265408 0 0
3:15 am 03:15 Partly Cloudy 73 23 73 23 100 100 Calm 29.8 1009 7 11.265408 0 0
3:35 am 03:35 Partly Cloudy with Mist and Fog 73 23 73 23 100 100 Calm 29.8 1009 5 8.04672 0 0
3:55 am 03:55 Partly Cloudy with Mist and Fog 73 23 73 23 100 100 Calm 29.8 1009 5 8.04672 0 0
4:15 am 04:15 Mostly Cloudy with Mist and Fog 73 23 73 23 100 100 Calm 29.8 1009 5 8.04672 0 0
4:35 am 04:35 Partly Cloudy 72 22 72 22 100 100 Calm 29.8 1009 7 11.265408 0 0
4:55 am 04:55 Mostly Cloudy with Mist and Fog 73 23 73 23 100 100 Calm 29.8 1009 5 8.04672 0 0
5:15 am 05:15 Cloudy with Mist and Fog 73 23 73 23 100 100 Calm 29.8 1009 2.5 4.02336 0 0
5:35 am 05:35 Cloudy with Fog 72 22 72 22 100 100 Calm 29.8 1009 0.5 0.804672 0 0
5:55 am 05:55 Cloudy with Fog 72 22 72 22 100 100 Calm 29.8 1009 0.5 0.804672 0 0
6:15 am 06:15 Cloudy with Fog 72 22 72 22 100 100 Calm 29.77 1008 0 0 0 0
6:35 am 06:35 Cloudy with Fog 72 22 72 22 100 100 Calm 29.8 1009 0.25 0.402336 0 0
6:55 am 06:55 Cloudy with Fog 72 22 72 22 100 100 Calm 29.8 1009 0.25 0.402336 0 0
7:15 am 07:15 Cloudy with Fog 72 22 72 22 100 100 Calm 29.8 1009 0.25 0.402336 0 0
7:35 am 07:35 Cloudy with Mist and Fog 73 23 73 23 100 100 W 3 6 29.8 1009 1.5 2.414016 0 0
7:55 am 07:55 Mostly Cloudy 73 23 73 23 100 100 SW 3 6 29.83 1010 7 11.265408 0 0
8:15 am 08:15 Partly Cloudy 73 23 73 23 100 100 Calm 29.83 1010 10 16.09344 0 0
8:35 am 08:35 Partly Cloudy 77 25 77 25 100 100 Calm 29.83 1010 10 16.09344 0 0
8:55 am 08:55 Sunny 79 26 77 25 94 94 Calm 29.83 1010 10 16.09344 0 0
9:15 am 09:15 Sunny 81 27 79 26 94 94 Calm 29.83 1010 10 16.09344 0 0
9:35 am 09:35 Sunny 81 27 79 26 94 94 W 5 7 29.83 1010 10 16.09344 0 0
9:55 am 09:55 Sunny 82 28 77 25 84 84 W 5 7 29.83 1010 10 16.09344 0 0
10:15 am 10:15 Sunny 82 28 75 24 79 79 WNW 7 11 29.83 1010 10 16.09344 0 0
10:35 am 10:35 Sunny 84 29 77 25 79 79 W 6 9 29.8 1009 10 16.09344 0 0
10:55 am 10:55 Partly Cloudy 86 30 77 25 75 75 WNW 7 11 29.8 1009 10 16.09344 0 0
11:15 am 11:15 Sunny 86 30 77 25 75 75 WNW 10 17 29.8 1009 10 16.09344 0 0
11:35 am 11:35 Mostly Cloudy 88 31 77 25 70 70 WNW 7 11 29.8 1009 10 16.09344 0 0
11:55 am 11:55 Mostly Cloudy 88 31 75 24 66 66 W 8 13 29.8 1009 10 16.09344 0 0
12:15 pm 12:15 Mostly Cloudy 86 30 75 24 70 70 WSW 7 11 29.8 1009 10 16.09344 0 0
12:35 pm 12:35 Partly Cloudy 84 29 75 24 74 74 W 6 9 29.8 1009 10 16.09344 0 0
12:55 pm 12:55 Partly Cloudy 84 29 77 25 79 79 W 6 9 29.8 1009 10 16.09344 0 0
1:15 pm 13:15 Mostly Cloudy 84 29 75 24 74 74 WSW 3 6 29.8 1009 10 16.09344 0 0
1:35 pm 13:35 Partly Cloudy 86 30 75 24 70 70 W 5 7 29.77 1008 10 16.09344 0 0
1:55 pm 13:55 Sunny 88 31 75 24 66 66 NNW 5 7 29.77 1008 10 16.09344 0 0
2:15 pm 14:15 Sunny 90 32 75 24 63 63 WSW 3 6 29.77 1008 10 16.09344 0 0
2:35 pm 14:35 Partly Cloudy with Nearby Thunderstorms 88 31 73 23 62 62 NW 10 17 29.77 1008 10 16.09344 0 0
2:55 pm 14:55 Cloudy 88 31 77 25 70 70 SW 6 9 29.77 1008 10 16.09344 0 0
3:15 pm 15:15 Mostly Cloudy 88 31 75 24 66 66 WSW 6 9 29.77 1008 10 16.09344 0 0
3:35 pm 15:35 Cloudy with Heavy Rain 82 28 77 25 84 84 SW 3 6 29.8 1009 3 4.828032 0.03 0.762
3:55 pm 15:55 Cloudy 82 28 79 26 89 89 SW 6 9 29.8 1009 10 16.09344 0.12 3.048
4:15 pm 16:15 Cloudy 82 28 77 25 84 84 Calm 29.8 1009 10 16.09344 0 0
4:35 pm 16:35 Cloudy with Nearby Thunderstorms 81 27 79 26 94 94 NE 6 9 29.8 1009 10 16.09344 0 0
4:55 pm 16:55 Cloudy 79 26 77 25 94 94 NNE 7 11 29.8 1009 7 11.265408 0.02 0.508
5:15 pm 17:15 Cloudy with Heavy Thunderstorms 77 25 73 23 89 89 N 12 19 29.8 1009 1 1.609344 0.48 12.192
5:35 pm 17:35 Cloudy with Heavy Thunderstorms 73 23 72 22 94 94 S 7 11 29.8 1009 2 3.218688 1.01 25.654
5:55 pm 17:55 Cloudy 73 23 73 23 100 100 WSW 5 7 29.8 1009 10 16.09344 1.02 25.908
6:15 pm 18:15 Partly Cloudy 77 25 77 25 100 100 Calm 29.77 1008 10 16.09344 0 0
6:35 pm 18:35 Partly Cloudy 77 25 77 25 100 100 Calm 29.77 1008 10 16.09344 0 0
6:55 pm 18:55 Partly Cloudy 79 26 77 25 94 94 Calm 29.77 1008 10 16.09344 0 0
7:15 pm 19:15 Sunny 79 26 77 25 94 94 NE 5 7 29.77 1008 10 16.09344 0 0
7:35 pm 19:35 Partly Cloudy 77 25 77 25 100 100 ENE 5 7 29.77 1008 10 16.09344 0 0
7:55 pm 19:55 Partly Cloudy 77 25 77 25 100 100 E 6 9 29.8 1009 10 16.09344 0 0
8:15 pm 20:15 Partly Cloudy 77 25 77 25 100 100 E 6 9 29.8 1009 10 16.09344 0 0
8:35 pm 20:35 Cloudy 75 24 75 24 100 100 Calm 29.8 1009 10 16.09344 0 0
8:55 pm 20:55 Cloudy 75 24 75 24 100 100 Calm 29.8 1009 10 16.09344 0 0
9:15 pm 21:15 Cloudy 75 24 75 24 100 100 E 6 9 29.8 1009 10 16.09344 0 0
9:35 pm 21:35 Mostly Cloudy 75 24 75 24 100 100 ESE 6 9 29.8 1009 10 16.09344 0 0
9:55 pm 21:55 Mostly Cloudy 75 24 75 24 100 100 E 5 7 29.8 1009 10 16.09344 0 0
10:15 pm 22:15 Mostly Cloudy 75 24 75 24 100 100 Calm 29.8 1009 10 16.09344 0 0
10:35 pm 22:35 Mostly Cloudy 75 24 75 24 100 100 SE 3 6 29.83 1010 10 16.09344 0 0
10:55 pm 22:55 Cloudy 77 25 75 24 94 94 SSE 3 6 29.8 1009 10 16.09344 0 0
11:15 pm 23:15 Mostly Cloudy with Nearby Thunderstorms 75 24 75 24 100 100 Calm 29.8 1009 10 16.09344 0 0
11:35 pm 23:35 Clear 75 24 75 24 100 100 Calm 29.8 1009 10 16.09344 0 0
11:55 pm 23:55 Partly Cloudy 75 24 75 24 100 100 Calm 29.8 1009 10 16.09344 0 0

Powered by AerisWeather